Daleville, AL

11:43 AM CST on December 09, 2016 (GMT -0600)
Cairns Army Air Field

Weather History for KOZR - January, 2014

Change the Weather History Date:

Thursday, January 16, 2014

  Actual Average Record
Temperature  
Mean Temperature 38 °F -  
Max Temperature 49 °F 58 °F 74 °F (2013)
Min Temperature 26 °F 36 °F 24 °F (2009)
Degree Days  
Heating Degree Days 28    
Moisture  
Dew Point 17 °F    
Average Humidity 48    
Maximum Humidity 71    
Minimum Humidity 20    
Precipitation  
Precipitation 0.00 in - - ()
Sea Level Pressure  
Sea Level Pressure 30.14 in    
Wind  
Wind Speed 5 mph (WSW)    
Max Wind Speed 10 mph    
Max Gust Speed -    
Visibility 10 miles    
Events      
Averages and records for this station are not official NWS values.
T = Trace of Precipitation, MM = Missing Value Source: NWS Daily Summary

Daily Weather History Graph

Daily Weather History Graph

Search for Another Location

Airport or City:

Trip Planner

Search our weather history database for the weather conditions in past years. The results will help you decide how hot, cold, wet, or windy it might be!

Date:

Astronomy

Jan. 16, 2014 Rise Set
Actual Time 6:41 AM CST 5:03 PM CST
Civil Twilight 6:15 AM CST 5:29 PM CST
Nautical Twilight 5:46 AM CST 5:59 PM CST
Astronomical Twilight 5:16 AM CST 6:28 PM CST
Moon 5:48 PM CST (1/16) 6:40 AM CST (1/16)
Length of Visible Light 11h 14m
Length of Day
10h 21m
Full, 100% of the Moon is Illuminated
Jan 16
Full
Jan 23
Last Quarter
Jan 30
New
Feb 6
First Quarter
Feb 14
Full

Hourly Weather History & Observations

Time (CST) Temp. Windchill Dew Point Humidity Pressure Visibility Wind Dir Wind Speed Gust Speed Precip Events Conditions
12:58 AM 32.2 °F 27.7 °F 17.1 °F 54% 30.14 in 10.0 mi West 4.6 mph - N/A   Clear
1:58 AM 30.7 °F 24.9 °F 17.8 °F 59% 30.15 in 10.0 mi NW 5.8 mph - N/A   Clear
2:58 AM 28.9 °F 23.9 °F 17.4 °F 62% 30.15 in 10.0 mi West 4.6 mph - N/A   Clear
3:58 AM 27.7 °F 21.3 °F 18.1 °F 67% 30.16 in 10.0 mi WNW 5.8 mph - N/A   Clear
4:58 AM 26.8 °F 20.2 °F 17.4 °F 68% 30.16 in 10.0 mi WNW 5.8 mph - N/A   Clear
5:58 AM 26.2 °F 20.7 °F 17.1 °F 68% 30.17 in 10.0 mi WNW 4.6 mph - N/A   Clear
6:58 AM 26.6 °F 20.0 °F 16.9 °F 67% 30.19 in 10.0 mi NW 5.8 mph - N/A   Clear
7:58 AM 29.5 °F 23.4 °F 17.6 °F 61% 30.21 in 10.0 mi NW 5.8 mph - N/A   Clear
8:58 AM 34.9 °F 30.8 °F 16.9 °F 48% 30.22 in 10.0 mi Variable 4.6 mph - N/A   Clear
9:58 AM 38.3 °F 35.9 °F 12.0 °F 34% 30.22 in 10.0 mi Variable 3.5 mph - N/A   Clear
10:58 AM 40.8 °F - 10.6 °F 29% 30.19 in 10.0 mi Variable 2.3 mph - N/A   Unknown
11:58 AM 44.2 °F 39.7 °F 8.6 °F 23% 30.16 in 10.0 mi WSW 8.1 mph - N/A   Clear
12:58 PM 46.9 °F - 7.9 °F 20% 30.12 in 10.0 mi Variable 3.5 mph - N/A   Clear
1:58 PM 48.4 °F - 8.8 °F 20% 30.10 in 10.0 mi SW 4.6 mph - N/A   Clear
2:58 PM 49.3 °F - 10.4 °F 21% 30.09 in 10.0 mi West 4.6 mph - N/A   Clear
3:58 PM 49.5 °F - 13.3 °F 24% 30.09 in 10.0 mi SSW 5.8 mph - N/A   Clear
4:58 PM 46.4 °F 43.5 °F 16.3 °F 30% 30.11 in 10.0 mi SSW 5.8 mph - N/A   Clear
5:58 PM 43.2 °F 39.7 °F 17.8 °F 36% 30.10 in 10.0 mi South 5.8 mph - N/A   Clear
6:58 PM 42.3 °F 36.3 °F 20.7 °F 42% 30.11 in 10.0 mi South 10.4 mph - N/A   Clear
7:58 PM 39.4 °F 33.8 °F 25.7 °F 58% 30.13 in 10.0 mi SSW 8.1 mph - N/A   Clear
8:58 PM 38.1 °F 33.7 °F 26.4 °F 63% 30.13 in 10.0 mi SSW 5.8 mph - N/A   Clear
9:58 PM 37.2 °F 32.6 °F 26.2 °F 65% 30.14 in 10.0 mi South 5.8 mph - N/A   Clear
10:58 PM 36.5 °F 32.7 °F 26.8 °F 68% 30.12 in 10.0 mi South 4.6 mph - N/A   Clear
11:58 PM 36.5 °F - 27.9 °F 71% 30.10 in 10.0 mi South 2.3 mph - N/A   Clear